Regional Weather Roundup
Issued by NWS Northern Indiana

Home | Current Version | Previous Version | Graphics & Text | Print | Product List | Glossary On
Versions: 1 2 3 4 5 6 7 8 9 10 11 12 13 14 15 16 17 18 19 20 21 22 23 24 25 26 27 28 29 30 31 32 33 34 35 36 37 38 39 40 41 42 43 44 45 46 47 48 49 50
000
ASUS43 KIWX 260310
RWRIWX

KIWX WEATHER ROUNDUP
NATIONAL WEATHER SERVICE NORTHERN INDIANA
1100 PM EDT THU AUG 25 2016

NOTE: "FAIR" INDICATES FEW OR NO CLOUDS BELOW 12,000 FEET WITH NO
SIGNIFICANT WEATHER AND/OR OBSTRUCTIONS TO VISIBILITY.

* THESE STATIONS ARE NOT UNDER NWS QUALITY CONTROL. THEY ALSO MAY NOT
  REPORT WEATHER SUCH AS PRECIPITATION OR FOG.

INZ001>027-260400-
NORTHERN INDIANA

CITY           SKY/WX    TMP DP  RH WIND       PRES   REMARKS
GARY*          PTCLDY    72  70  94 CALM      30.07S
VALPARAISO     PTCLDY    72  70  93 NE3       30.07S
MICHIGAN CITY* CLOUDY    70  70 100 MISG      30.07S
LAPORTE*       PTCLDY    71  71 100 CALM      30.08S
KNOX*          PTCLDY    70  59  68 N3        30.06S
SOUTH BEND     MOCLDY    71  69  93 CALM      30.07S
GOSHEN         CLOUDY    72  67  84 NW3       30.07R
MONTICELLO*    CLEAR     72  68  87 N3        30.06S
LOGANSPORT*    PTCLDY    73  70  88 N5        30.08R
ROCHESTER*     CLOUDY    73  73 100 CALM      30.08R
WARSAW*        LGT RAIN  70  70 100 N3        30.08S
ANGOLA*        CLEAR     72  64  78 NW3       30.07S
FORT WAYNE     MOCLDY    74  70  87 W6        30.07R
HUNTINGTON*    MOCLDY   N/A N/A N/A CALM      30.07R
PERU/GRISSOM   PTCLDY    74  73  96 SW2       30.06R
MARION*        CLOUDY    71  69  95 CALM      30.08S

$$
INZ028>050-260400-
CENTRAL INDIANA

CITY           SKY/WX    TMP DP  RH WIND       PRES   REMARKS
LAFAYETTE      MOCLDY    74  74 100 CALM      30.05S
MUNCIE*        MOCLDY    76  71  85 CALM      30.07S
INDIANAPOLIS   NOT AVBL

$$
MIZ043>046-050>051-056>058-064>065-071>073-077>080-260400-
SOUTHWEST LOWER MICHIGAN

CITY           SKY/WX    TMP DP  RH WIND       PRES   REMARKS
BATTLE CREEK   CLOUDY    66  64  93 W5        30.07R
BENTON HARBOR  PTCLDY    68  65  90 CALM      30.06R
COLDWATER*     CLEAR     67  66  99 CALM      30.07S
HILLSDALE*     CLEAR     70  66  87 NW5       30.06S
HOLLAND        CLEAR     64  62  93 CALM      30.05S
GRAND RAPIDS   MOCLDY    66  61  84 SW6       30.05S
KALAMAZOO      CLOUDY    69  61  75 CALM      30.07R
STURGIS*       CLEAR     68  65  90 N3        30.06S
THREE RIVERS*  FAIR      68  65  90 CALM      30.07S

$$
OHZ001>008-015>018-024>025-260400-
NORTHWEST OHIO

CITY           SKY/WX    TMP DP  RH WIND       PRES   REMARKS
WAUSEON*       FAIR      72  68  88 W5        30.05S
DEFIANCE       PTCLDY    74  69  85 CALM      30.05S
FINDLAY        CLEAR     75  68  78 SW3       30.04S
TOLEDO EXPRESS CLEAR     74  71  91 W6        30.04R
TOLEDO METCALF CLEAR     76  70  82 W5        30.04R
LIMA           CLEAR     75  71  87 SW5       30.07R

$$
AND FOR LAKE MICHIGAN COASTAL AND OPEN LAKE BUOY OBSERVATIONS

STATION/POSITION TEMP    WIND        PRES    VSBY  WAVE
                 AIR SEA DIR/SP/G                  HT/PER
                 (F)     (DEG/KT/KT) (MB)    (MI)  (FT/S)
CALUMET HARBOR    72                 1017.6R
MICHIGAN CITY     74      60/  2/  2   N/A
BURNS HARBOR      74      70/  4/  6 1018.3R
SAINT JOSEPH      71     140/  1/  2 1018.3R
SOUTH LAKE BUOY   74 75  220/  8/  8 1016.9R         1
4 MI NW BRIDGMAN  74 76  230/  2/  2 1017.5S         1/ 4
MICHIGAN CITY     74 75  110/  2/  2   N/A           1/ 4

$$
&&




USA.gov is the U.S. government's official web portal to all federal, state and local government web resources and services.